Year,Month,Day,Hour,Minute,Value (Times are PST for temperature in C)
2019,02,03,00,00,3.90
2019,02,03,00,01,3.90
2019,02,03,00,02,3.80
2019,02,03,00,03,3.80
2019,02,03,00,04,3.80
2019,02,03,00,05,3.80
2019,02,03,00,06,3.80
2019,02,03,00,07,3.80
2019,02,03,00,08,3.80
2019,02,03,00,09,3.80
2019,02,03,00,10,3.80
2019,02,03,00,11,3.80
2019,02,03,00,12,3.80
2019,02,03,00,13,3.80
2019,02,03,00,14,3.80
2019,02,03,00,15,3.80
2019,02,03,00,16,3.80
2019,02,03,00,17,3.80
2019,02,03,00,18,3.80
2019,02,03,00,19,3.80
2019,02,03,00,20,3.90
2019,02,03,00,21,3.90
2019,02,03,00,22,3.90
2019,02,03,00,23,3.90
2019,02,03,00,24,3.90
2019,02,03,00,25,3.90
2019,02,03,00,26,3.80
2019,02,03,00,27,3.80
2019,02,03,00,28,3.80
2019,02,03,00,29,3.80
2019,02,03,00,30,3.80
2019,02,03,00,31,3.80
2019,02,03,00,32,3.80
2019,02,03,00,33,3.80
2019,02,03,00,34,3.80
2019,02,03,00,35,3.80
2019,02,03,00,36,3.80
2019,02,03,00,37,3.80
2019,02,03,00,38,3.80
2019,02,03,00,39,3.80
2019,02,03,00,40,3.80
2019,02,03,00,41,3.80
2019,02,03,00,42,3.80
2019,02,03,00,43,3.80
2019,02,03,00,44,3.80
2019,02,03,00,45,3.80
2019,02,03,00,46,3.80
2019,02,03,00,47,3.80
2019,02,03,00,48,3.80
2019,02,03,00,49,3.80
2019,02,03,00,50,3.80
2019,02,03,00,51,3.80
2019,02,03,00,52,3.80
2019,02,03,00,53,3.80
2019,02,03,00,54,3.80
2019,02,03,00,55,3.80
2019,02,03,00,56,3.80
2019,02,03,00,57,3.80
2019,02,03,00,58,3.80
2019,02,03,00,59,3.80
2019,02,03,01,00,3.80
2019,02,03,01,01,3.80
2019,02,03,01,02,3.80
2019,02,03,01,03,3.80
2019,02,03,01,04,3.80
2019,02,03,01,05,3.80
2019,02,03,01,06,3.80
2019,02,03,01,07,3.70
2019,02,03,01,08,3.70
2019,02,03,01,09,3.70
2019,02,03,01,10,3.70
2019,02,03,01,11,3.70
2019,02,03,01,12,3.70
2019,02,03,01,13,3.70
2019,02,03,01,14,3.70
2019,02,03,01,15,3.70
2019,02,03,01,16,3.70
2019,02,03,01,17,3.70
2019,02,03,01,18,3.70
2019,02,03,01,19,3.70
2019,02,03,01,20,3.70
2019,02,03,01,21,3.70
2019,02,03,01,22,3.70
2019,02,03,01,23,3.70
2019,02,03,01,24,3.70
2019,02,03,01,25,3.70
2019,02,03,01,26,3.70
2019,02,03,01,27,3.70
2019,02,03,01,28,3.70
2019,02,03,01,29,3.60
2019,02,03,01,30,3.60
2019,02,03,01,31,3.60
2019,02,03,01,32,3.60
2019,02,03,01,33,3.60
2019,02,03,01,34,3.60
2019,02,03,01,35,3.60
2019,02,03,01,36,3.60
2019,02,03,01,37,3.60
2019,02,03,01,38,3.60
2019,02,03,01,39,3.60
2019,02,03,01,40,3.60
2019,02,03,01,41,3.60
2019,02,03,01,42,3.60
2019,02,03,01,43,3.60
2019,02,03,01,44,3.60
2019,02,03,01,45,3.60
2019,02,03,01,46,3.60
2019,02,03,01,47,3.60
2019,02,03,01,48,3.60
2019,02,03,01,49,3.60
2019,02,03,01,50,3.60
2019,02,03,01,51,3.60
2019,02,03,01,52,3.50
2019,02,03,01,53,3.50
2019,02,03,01,54,3.50
2019,02,03,01,55,3.50
2019,02,03,01,56,3.50
2019,02,03,01,57,3.50
2019,02,03,01,58,3.50
2019,02,03,01,59,3.50
2019,02,03,02,00,3.50
2019,02,03,02,01,3.50
2019,02,03,02,02,3.50
2019,02,03,02,03,3.50
2019,02,03,02,04,3.50
2019,02,03,02,05,3.50
2019,02,03,02,06,3.50
2019,02,03,02,07,3.50
2019,02,03,02,08,3.50
2019,02,03,02,09,3.50
2019,02,03,02,10,3.50
2019,02,03,02,11,3.50
2019,02,03,02,12,3.50
2019,02,03,02,13,3.50
2019,02,03,02,14,3.50
2019,02,03,02,15,3.50
2019,02,03,02,16,3.50
2019,02,03,02,17,3.50
2019,02,03,02,18,3.50
2019,02,03,02,19,3.50
2019,02,03,02,20,3.50
2019,02,03,02,21,3.50
2019,02,03,02,22,3.50
2019,02,03,02,23,3.50
2019,02,03,02,24,3.50
2019,02,03,02,25,3.50
2019,02,03,02,26,3.50
2019,02,03,02,27,3.50
2019,02,03,02,28,3.40
2019,02,03,02,29,3.40
2019,02,03,02,30,3.40
2019,02,03,02,31,3.40
2019,02,03,02,32,3.40
2019,02,03,02,33,3.40
2019,02,03,02,34,3.40
2019,02,03,02,35,3.40
2019,02,03,02,36,3.40
2019,02,03,02,37,3.40
2019,02,03,02,38,3.40
2019,02,03,02,39,3.40
2019,02,03,02,40,3.40
2019,02,03,02,41,3.30
2019,02,03,02,42,3.30
2019,02,03,02,43,3.30
2019,02,03,02,44,3.30
2019,02,03,02,45,3.30
2019,02,03,02,46,3.30
2019,02,03,02,47,3.30
2019,02,03,02,48,3.30
2019,02,03,02,49,3.30
2019,02,03,02,50,3.30
2019,02,03,02,51,3.30
2019,02,03,02,52,3.30
2019,02,03,02,53,3.30
2019,02,03,02,54,3.30
2019,02,03,02,55,3.30
2019,02,03,02,56,3.30
2019,02,03,02,57,3.30
2019,02,03,02,58,3.30
2019,02,03,02,59,3.30
2019,02,03,03,00,3.30
2019,02,03,03,01,3.30
2019,02,03,03,02,3.30
2019,02,03,03,03,3.30
2019,02,03,03,04,3.30
2019,02,03,03,05,3.30
2019,02,03,03,06,3.30
2019,02,03,03,07,3.30
2019,02,03,03,08,3.30
2019,02,03,03,09,3.30
2019,02,03,03,10,3.30
2019,02,03,03,11,3.30
2019,02,03,03,12,3.30
2019,02,03,03,13,3.30
2019,02,03,03,14,3.30
2019,02,03,03,15,3.30
2019,02,03,03,16,3.30
2019,02,03,03,17,3.30
2019,02,03,03,18,3.30
2019,02,03,03,19,3.30
2019,02,03,03,20,3.20
2019,02,03,03,21,3.20
2019,02,03,03,22,3.20
2019,02,03,03,23,3.20
2019,02,03,03,24,3.20
2019,02,03,03,25,3.20
2019,02,03,03,26,3.20
2019,02,03,03,27,3.20
2019,02,03,03,28,3.20
2019,02,03,03,29,3.20
2019,02,03,03,30,3.20
2019,02,03,03,31,3.20
2019,02,03,03,32,3.20
2019,02,03,03,33,3.20
2019,02,03,03,34,3.20
2019,02,03,03,35,3.20
2019,02,03,03,36,3.20
2019,02,03,03,37,3.20
2019,02,03,03,38,3.20
2019,02,03,03,39,3.10
2019,02,03,03,40,3.10
2019,02,03,03,41,3.10
2019,02,03,03,42,3.10
2019,02,03,03,43,3.10
2019,02,03,03,44,3.10
2019,02,03,03,45,3.10
2019,02,03,03,46,3.10
2019,02,03,03,47,3.10
2019,02,03,03,48,3.10
2019,02,03,03,49,3.10
2019,02,03,03,50,3.10
2019,02,03,03,51,3.10
2019,02,03,03,52,3.10
2019,02,03,03,53,3.10
2019,02,03,03,54,3.10
2019,02,03,03,55,3.10
2019,02,03,03,56,3.10
2019,02,03,03,57,3.10
2019,02,03,03,58,3.10
2019,02,03,03,59,3.10
2019,02,03,04,00,3.10
2019,02,03,04,01,3.10
2019,02,03,04,02,3.10
2019,02,03,04,03,3.10
2019,02,03,04,04,3.10
2019,02,03,04,05,3.10
2019,02,03,04,06,3.00
2019,02,03,04,07,2.90
2019,02,03,04,08,2.90
2019,02,03,04,09,2.90
2019,02,03,04,10,2.90
2019,02,03,04,11,2.90
2019,02,03,04,12,2.90
2019,02,03,04,13,2.90
2019,02,03,04,14,2.90
2019,02,03,04,15,2.90
2019,02,03,04,16,2.90
2019,02,03,04,17,2.90
2019,02,03,04,18,2.90
2019,02,03,04,19,2.90
2019,02,03,04,20,2.90
2019,02,03,04,21,2.90
2019,02,03,04,22,2.90
2019,02,03,04,23,2.90
2019,02,03,04,24,2.90
2019,02,03,04,25,2.90
2019,02,03,04,26,2.90
2019,02,03,04,27,2.90
2019,02,03,04,28,2.90
2019,02,03,04,29,2.90
2019,02,03,04,30,2.90
2019,02,03,04,31,2.90
2019,02,03,04,32,2.90
2019,02,03,04,33,2.90
2019,02,03,04,34,2.90
2019,02,03,04,35,2.90
2019,02,03,04,36,2.90
2019,02,03,04,37,2.90
2019,02,03,04,38,2.90
2019,02,03,04,39,2.90
2019,02,03,04,40,2.90
2019,02,03,04,41,2.90
2019,02,03,04,42,2.90
2019,02,03,04,43,2.90
2019,02,03,04,44,2.90
2019,02,03,04,45,2.90
2019,02,03,04,46,2.90
2019,02,03,04,47,2.90
2019,02,03,04,48,2.90
2019,02,03,04,49,2.90
2019,02,03,04,50,2.80
2019,02,03,04,51,2.80
2019,02,03,04,52,2.80
2019,02,03,04,53,2.80
2019,02,03,04,54,2.80
2019,02,03,04,55,2.80
2019,02,03,04,56,2.80
2019,02,03,04,57,2.80
2019,02,03,04,58,2.80
2019,02,03,04,59,2.80
2019,02,03,05,00,2.80
2019,02,03,05,01,2.80
2019,02,03,05,02,2.80
2019,02,03,05,03,2.80
2019,02,03,05,04,2.80
2019,02,03,05,05,2.80
2019,02,03,05,06,2.80
2019,02,03,05,07,2.80
2019,02,03,05,08,2.80
2019,02,03,05,09,2.80
2019,02,03,05,10,2.80
2019,02,03,05,11,2.80
2019,02,03,05,12,2.80
2019,02,03,05,13,2.80
2019,02,03,05,14,2.80
2019,02,03,05,15,2.80
2019,02,03,05,16,2.80
2019,02,03,05,17,2.80
2019,02,03,05,18,2.80
2019,02,03,05,19,2.80
2019,02,03,05,20,2.80
2019,02,03,05,21,2.80
2019,02,03,05,22,2.80
2019,02,03,05,23,2.80
2019,02,03,05,24,2.80
2019,02,03,05,25,2.80
2019,02,03,05,26,2.80
2019,02,03,05,27,2.80
2019,02,03,05,28,2.70
2019,02,03,05,29,2.70
2019,02,03,05,30,2.80
2019,02,03,05,31,2.80
2019,02,03,05,32,2.80
2019,02,03,05,33,2.80
2019,02,03,05,34,2.80
2019,02,03,05,35,2.80
2019,02,03,05,36,2.80
2019,02,03,05,37,2.80
2019,02,03,05,38,2.80
2019,02,03,05,39,2.80
2019,02,03,05,40,2.90
2019,02,03,05,41,2.90
2019,02,03,05,42,2.90
2019,02,03,05,43,2.90
2019,02,03,05,44,2.80
2019,02,03,05,45,2.80
2019,02,03,05,46,2.80
2019,02,03,05,47,2.70
2019,02,03,05,48,2.70
2019,02,03,05,49,2.70
2019,02,03,05,50,2.60
2019,02,03,05,51,2.60
2019,02,03,05,52,2.50
2019,02,03,05,53,2.50
2019,02,03,05,54,2.40
2019,02,03,05,55,2.40
2019,02,03,05,56,2.30
2019,02,03,05,57,2.30
2019,02,03,05,58,2.20
2019,02,03,05,59,2.20
2019,02,03,06,00,2.20
2019,02,03,06,01,2.20
2019,02,03,06,02,2.20
2019,02,03,06,03,2.20
2019,02,03,06,04,2.20
2019,02,03,06,05,2.20
2019,02,03,06,06,2.20
2019,02,03,06,07,2.20
2019,02,03,06,08,2.10
2019,02,03,06,09,2.10
2019,02,03,06,10,2.10
2019,02,03,06,11,2.00
2019,02,03,06,12,1.90
2019,02,03,06,13,1.80
2019,02,03,06,14,1.80
2019,02,03,06,15,1.80
2019,02,03,06,16,1.70
2019,02,03,06,17,1.70
2019,02,03,06,18,1.70
2019,02,03,06,19,1.60
2019,02,03,06,20,1.60
2019,02,03,06,21,1.60
2019,02,03,06,22,1.60
2019,02,03,06,23,1.60
2019,02,03,06,24,1.60
2019,02,03,06,25,1.60
2019,02,03,06,26,1.60
2019,02,03,06,27,1.60
2019,02,03,06,28,1.60
2019,02,03,06,29,1.60
2019,02,03,06,30,1.60
2019,02,03,06,31,1.60
2019,02,03,06,32,1.60
2019,02,03,06,33,1.60
2019,02,03,06,34,1.60
2019,02,03,06,35,1.60
2019,02,03,06,36,1.60
2019,02,03,06,37,1.60
2019,02,03,06,38,1.60
2019,02,03,06,39,1.60
2019,02,03,06,40,1.70
2019,02,03,06,41,1.70
2019,02,03,06,42,1.70
2019,02,03,06,43,1.70
2019,02,03,06,44,1.70
2019,02,03,06,45,1.70
2019,02,03,06,46,1.70
2019,02,03,06,47,1.70
2019,02,03,06,48,1.70
2019,02,03,06,49,1.70
2019,02,03,06,50,1.70
2019,02,03,06,51,1.70
2019,02,03,06,52,1.70
2019,02,03,06,53,1.70
2019,02,03,06,54,1.70
2019,02,03,06,55,1.70
2019,02,03,06,56,1.80
2019,02,03,06,57,1.70
2019,02,03,06,58,1.70
2019,02,03,06,59,1.70
2019,02,03,07,00,1.70
2019,02,03,07,01,1.80
2019,02,03,07,02,1.80
2019,02,03,07,03,1.80
2019,02,03,07,04,1.80
2019,02,03,07,05,1.80
2019,02,03,07,06,1.80
2019,02,03,07,07,1.80
2019,02,03,07,08,1.70
2019,02,03,07,09,1.70
2019,02,03,07,10,1.70
2019,02,03,07,11,1.70
2019,02,03,07,12,1.70
2019,02,03,07,13,1.70
2019,02,03,07,14,1.70
2019,02,03,07,15,1.60
2019,02,03,07,16,1.60
2019,02,03,07,17,1.60
2019,02,03,07,18,1.60
2019,02,03,07,19,1.70
2019,02,03,07,20,1.70
2019,02,03,07,21,1.70
2019,02,03,07,22,1.70
2019,02,03,07,23,1.70
2019,02,03,07,24,1.70
2019,02,03,07,25,1.70
2019,02,03,07,26,1.70
2019,02,03,07,27,1.80
2019,02,03,07,28,1.80
2019,02,03,07,29,1.80
2019,02,03,07,30,1.80
2019,02,03,07,31,1.80
2019,02,03,07,32,1.80
2019,02,03,07,33,1.80
2019,02,03,07,34,1.80
2019,02,03,07,35,1.80
2019,02,03,07,36,1.80
2019,02,03,07,37,1.80
2019,02,03,07,38,1.80
2019,02,03,07,39,1.90
2019,02,03,07,40,1.90
2019,02,03,07,41,1.90
2019,02,03,07,42,1.90
2019,02,03,07,43,1.90
2019,02,03,07,44,1.90
2019,02,03,07,45,1.90
2019,02,03,07,46,2.00
2019,02,03,07,47,2.00
2019,02,03,07,48,2.00
2019,02,03,07,49,2.00
2019,02,03,07,50,2.10
2019,02,03,07,51,2.10
2019,02,03,07,52,2.10
2019,02,03,07,53,2.10
2019,02,03,07,54,2.20
2019,02,03,07,55,2.20
2019,02,03,07,56,2.20
2019,02,03,07,57,2.20
2019,02,03,07,58,2.20
2019,02,03,07,59,2.20
2019,02,03,08,00,2.20
2019,02,03,08,01,2.20
2019,02,03,08,02,2.20
2019,02,03,08,03,2.30
2019,02,03,08,04,2.30
2019,02,03,08,05,2.30
2019,02,03,08,06,2.30
2019,02,03,08,07,2.40
2019,02,03,08,08,2.40
2019,02,03,08,09,2.40
2019,02,03,08,10,2.40
2019,02,03,08,11,2.40
2019,02,03,08,12,2.40
2019,02,03,08,13,2.40
2019,02,03,08,14,2.50
2019,02,03,08,15,2.50
2019,02,03,08,16,2.50
2019,02,03,08,17,2.50
2019,02,03,08,18,2.50
2019,02,03,08,19,2.50
2019,02,03,08,20,2.50
2019,02,03,08,21,2.50
2019,02,03,08,22,2.50
2019,02,03,08,23,2.50
2019,02,03,08,24,2.50
2019,02,03,08,25,2.50
2019,02,03,08,26,2.40
2019,02,03,08,27,2.40
2019,02,03,08,28,2.40
2019,02,03,08,29,2.40
2019,02,03,08,30,2.40
2019,02,03,08,31,2.30
2019,02,03,08,32,2.30
2019,02,03,08,33,2.30
2019,02,03,08,34,2.20
2019,02,03,08,35,2.20
2019,02,03,08,36,2.20
2019,02,03,08,37,2.20
2019,02,03,08,38,2.10
2019,02,03,08,39,2.10
2019,02,03,08,40,2.10
2019,02,03,08,41,2.00
2019,02,03,08,42,2.00
2019,02,03,08,43,2.00
2019,02,03,08,44,2.00
2019,02,03,08,45,2.00
2019,02,03,08,46,1.90
2019,02,03,08,47,1.90
2019,02,03,08,48,1.90
2019,02,03,08,49,1.90
2019,02,03,08,50,1.80
2019,02,03,08,51,1.80
2019,02,03,08,52,1.80
2019,02,03,08,53,1.80
2019,02,03,08,54,1.80
2019,02,03,08,55,1.80
2019,02,03,08,56,1.80
2019,02,03,08,57,1.80
2019,02,03,08,58,1.80
2019,02,03,08,59,1.80
2019,02,03,09,00,1.80
2019,02,03,09,01,1.80
2019,02,03,09,02,1.80
2019,02,03,09,03,1.80
2019,02,03,09,04,1.80
2019,02,03,09,05,1.80
2019,02,03,09,06,1.80
2019,02,03,09,07,1.80
2019,02,03,09,08,1.80
2019,02,03,09,09,1.80
2019,02,03,09,10,1.80
2019,02,03,09,11,1.80
2019,02,03,09,12,1.80
2019,02,03,09,13,1.80
2019,02,03,09,14,1.80
2019,02,03,09,15,1.80
2019,02,03,09,16,1.80
2019,02,03,09,17,1.80
2019,02,03,09,18,1.80
2019,02,03,09,19,1.80
2019,02,03,09,20,1.80
2019,02,03,09,21,1.80
2019,02,03,09,22,1.80
2019,02,03,09,23,1.80
2019,02,03,09,24,1.80
2019,02,03,09,25,1.80
2019,02,03,09,26,1.80
2019,02,03,09,27,1.80
2019,02,03,09,28,1.80
2019,02,03,09,29,1.80
2019,02,03,09,30,1.80
2019,02,03,09,31,1.80
2019,02,03,09,32,1.80
2019,02,03,09,33,1.80
2019,02,03,09,34,1.80
2019,02,03,09,35,1.80
2019,02,03,09,36,1.80
2019,02,03,09,37,1.80
2019,02,03,09,38,1.80
2019,02,03,09,39,1.80
2019,02,03,09,40,1.70
2019,02,03,09,41,1.70
2019,02,03,09,42,1.70
2019,02,03,09,43,1.70
2019,02,03,09,44,1.70
2019,02,03,09,45,1.70
2019,02,03,09,46,1.70
2019,02,03,09,47,1.70
2019,02,03,09,48,1.70
2019,02,03,09,49,1.70
2019,02,03,09,50,1.70
2019,02,03,09,51,1.70
2019,02,03,09,52,1.70
2019,02,03,09,53,1.70
2019,02,03,09,54,1.70
2019,02,03,09,55,1.70
2019,02,03,09,56,1.70
2019,02,03,09,57,1.70
2019,02,03,09,58,1.70
2019,02,03,09,59,1.70
2019,02,03,10,00,1.70
2019,02,03,10,01,1.70
2019,02,03,10,02,1.70
2019,02,03,10,03,1.70
2019,02,03,10,04,1.70
2019,02,03,10,05,1.70
2019,02,03,10,06,1.70
2019,02,03,10,07,1.70
2019,02,03,10,08,1.70
2019,02,03,10,09,1.70
2019,02,03,10,10,1.70
2019,02,03,10,11,1.70
2019,02,03,10,12,1.70
2019,02,03,10,13,1.70
2019,02,03,10,14,1.70
2019,02,03,10,15,1.70
2019,02,03,10,16,1.70
2019,02,03,10,17,1.70
2019,02,03,10,18,1.70
2019,02,03,10,19,1.70
2019,02,03,10,20,1.70
2019,02,03,12,19,1.80
2019,02,03,12,20,1.80
2019,02,03,12,21,1.80
2019,02,03,12,22,1.80
2019,02,03,12,23,1.80
2019,02,03,12,24,1.80
2019,02,03,12,25,1.80
2019,02,03,12,26,1.80
2019,02,03,12,27,1.80
2019,02,03,12,28,1.80
2019,02,03,12,29,1.80
2019,02,03,12,30,1.80
2019,02,03,12,31,1.80
2019,02,03,12,32,1.80
2019,02,03,12,33,1.80
2019,02,03,12,34,1.80
2019,02,03,12,35,1.80
2019,02,03,12,36,1.80
2019,02,03,12,37,1.80
2019,02,03,12,38,1.80
2019,02,03,12,39,1.80
2019,02,03,12,40,1.80
2019,02,03,12,41,1.80
2019,02,03,12,42,1.80
2019,02,03,12,43,1.80
2019,02,03,12,44,1.80
2019,02,03,12,45,1.80
2019,02,03,12,46,1.80
2019,02,03,12,47,1.80
2019,02,03,12,48,1.80
2019,02,03,12,49,1.80
2019,02,03,12,50,1.80
2019,02,03,12,51,1.80
2019,02,03,12,52,1.80
2019,02,03,12,53,1.80
2019,02,03,12,54,1.80
2019,02,03,12,55,1.80
2019,02,03,12,56,1.80
2019,02,03,12,57,1.80
2019,02,03,12,58,1.80
2019,02,03,12,59,1.80
2019,02,03,13,00,1.70
2019,02,03,13,01,1.70
2019,02,03,13,02,1.70
2019,02,03,13,03,1.70
2019,02,03,13,04,1.70
2019,02,03,13,05,1.60
2019,02,03,13,06,1.60
2019,02,03,13,07,1.60
2019,02,03,13,08,1.60
2019,02,03,13,09,1.60
2019,02,03,13,10,1.70
2019,02,03,13,11,1.70
2019,02,03,13,12,1.70
2019,02,03,13,13,1.70
2019,02,03,13,14,1.70
2019,02,03,13,15,1.70
2019,02,03,13,16,1.70
2019,02,03,13,17,1.70
2019,02,03,13,18,1.80
2019,02,03,13,19,1.80
2019,02,03,13,20,1.80
2019,02,03,13,21,1.80
2019,02,03,13,22,1.80
2019,02,03,13,23,1.80
2019,02,03,13,24,1.80
2019,02,03,13,25,1.80
2019,02,03,13,26,1.80
2019,02,03,13,27,1.80
2019,02,03,13,28,1.80
2019,02,03,13,29,1.80
2019,02,03,13,30,1.70
2019,02,03,13,31,1.70
2019,02,03,13,32,1.70
2019,02,03,13,33,1.70
2019,02,03,13,34,1.70
2019,02,03,13,35,1.70
2019,02,03,13,36,1.80
2019,02,03,13,37,1.80
2019,02,03,13,38,1.70
2019,02,03,13,39,1.70
2019,02,03,13,40,1.70
2019,02,03,13,41,1.70
2019,02,03,13,42,1.70
2019,02,03,13,43,1.70
2019,02,03,13,44,1.70
2019,02,03,13,45,1.70
2019,02,03,13,46,1.60
2019,02,03,13,47,1.60
2019,02,03,13,48,1.60
2019,02,03,13,49,1.60
2019,02,03,13,50,1.60
2019,02,03,13,51,1.60
2019,02,03,13,52,1.60
2019,02,03,13,53,1.50
2019,02,03,13,54,1.50
2019,02,03,13,55,1.50
2019,02,03,13,56,1.60
2019,02,03,13,57,1.50
2019,02,03,13,58,1.50
2019,02,03,13,59,1.50
2019,02,03,14,00,1.50
2019,02,03,14,01,1.50
2019,02,03,14,02,1.60
2019,02,03,14,03,1.60
2019,02,03,14,04,1.60
2019,02,03,14,05,1.60
2019,02,03,14,06,1.60
2019,02,03,14,07,1.70
2019,02,03,14,08,1.70
2019,02,03,14,09,1.70
2019,02,03,14,10,1.70
2019,02,03,14,11,1.70
2019,02,03,14,12,1.70
2019,02,03,14,13,1.70
2019,02,03,14,14,1.80
2019,02,03,14,15,1.80
2019,02,03,14,16,1.80
2019,02,03,14,17,1.80
2019,02,03,14,18,1.80
2019,02,03,14,19,1.80
2019,02,03,14,20,1.80
2019,02,03,14,21,1.80
2019,02,03,14,22,1.80
2019,02,03,14,23,1.80
2019,02,03,14,24,1.90
2019,02,03,14,25,1.90
2019,02,03,14,26,1.90
2019,02,03,14,27,1.90
2019,02,03,14,28,1.90
2019,02,03,14,29,2.00
2019,02,03,14,30,2.00
2019,02,03,14,31,2.00
2019,02,03,14,32,2.00
2019,02,03,14,33,2.10
2019,02,03,14,34,2.10
2019,02,03,14,35,2.10
2019,02,03,14,36,2.20
2019,02,03,14,37,2.20
2019,02,03,14,38,2.20
2019,02,03,14,39,2.20
2019,02,03,14,40,2.20
2019,02,03,14,41,2.30
2019,02,03,14,42,2.30
2019,02,03,14,43,2.30
2019,02,03,14,44,2.30
2019,02,03,14,45,2.40
2019,02,03,14,46,2.40
2019,02,03,14,47,2.40
2019,02,03,14,48,2.40
2019,02,03,14,49,2.40
2019,02,03,14,50,2.40
2019,02,03,14,51,2.40
2019,02,03,14,52,2.40
2019,02,03,14,53,2.40
2019,02,03,14,54,2.40
2019,02,03,14,55,2.40
2019,02,03,14,56,2.40
2019,02,03,14,57,2.40
2019,02,03,14,58,2.40
2019,02,03,14,59,2.40
2019,02,03,15,00,2.40
2019,02,03,15,01,2.40
2019,02,03,15,02,2.40
2019,02,03,15,03,2.40
2019,02,03,15,04,2.40
2019,02,03,15,05,2.40
2019,02,03,15,06,2.40
2019,02,03,15,07,2.40
2019,02,03,15,08,2.40
2019,02,03,15,09,2.40
2019,02,03,15,10,2.50
2019,02,03,15,11,2.50
2019,02,03,15,12,2.40
2019,02,03,15,13,2.40
2019,02,03,15,14,2.40
2019,02,03,15,15,2.40
2019,02,03,15,16,2.50
2019,02,03,15,17,2.50
2019,02,03,15,18,2.50
2019,02,03,15,19,2.50
2019,02,03,15,20,2.50
2019,02,03,15,21,2.50
2019,02,03,15,22,2.50
2019,02,03,15,23,2.50
2019,02,03,15,24,2.50
2019,02,03,15,25,2.50
2019,02,03,15,26,2.60
2019,02,03,15,27,2.60
2019,02,03,15,28,2.60
2019,02,03,15,29,2.50
2019,02,03,15,30,2.50
2019,02,03,15,31,2.50
2019,02,03,15,32,2.50
2019,02,03,15,33,2.50
2019,02,03,15,34,2.50
2019,02,03,15,35,2.50
2019,02,03,15,36,2.50
2019,02,03,15,37,2.50
2019,02,03,15,38,2.50
2019,02,03,15,39,2.40
2019,02,03,15,40,2.40
2019,02,03,15,41,2.40
2019,02,03,15,42,2.40
2019,02,03,15,43,2.40
2019,02,03,15,44,2.40
2019,02,03,15,45,2.40
2019,02,03,15,46,2.40
2019,02,03,15,47,2.40
2019,02,03,15,48,2.40
2019,02,03,15,49,2.40
2019,02,03,15,50,2.40
2019,02,03,15,51,2.40
2019,02,03,15,52,2.40
2019,02,03,15,53,2.40
2019,02,03,15,54,2.40
2019,02,03,15,55,2.40
2019,02,03,15,56,2.30
2019,02,03,15,57,2.30
2019,02,03,15,58,2.30
2019,02,03,15,59,2.30
2019,02,03,16,00,2.30
2019,02,03,16,01,2.30
2019,02,03,16,02,2.30
2019,02,03,16,03,2.30
2019,02,03,16,04,2.30
2019,02,03,16,05,2.30
2019,02,03,16,06,2.30
2019,02,03,16,07,2.30
2019,02,03,16,08,2.30
2019,02,03,16,09,2.30
2019,02,03,16,10,2.30
2019,02,03,16,11,2.20
2019,02,03,16,12,2.10
2019,02,03,16,13,2.10
2019,02,03,16,14,2.00
2019,02,03,16,15,1.90
2019,02,03,16,16,1.90
2019,02,03,16,17,1.90
2019,02,03,16,18,1.80
2019,02,03,16,19,1.80
2019,02,03,16,20,1.80
2019,02,03,16,21,1.70
2019,02,03,16,22,1.70
2019,02,03,16,23,1.70
2019,02,03,16,24,1.60
2019,02,03,16,25,1.60
2019,02,03,16,26,1.50
2019,02,03,16,27,1.50
2019,02,03,16,28,1.50
2019,02,03,16,29,1.50
2019,02,03,16,30,1.50
2019,02,03,16,31,1.40
2019,02,03,16,32,1.40
2019,02,03,16,33,1.40
2019,02,03,16,34,1.40
2019,02,03,16,35,1.40
2019,02,03,16,36,1.40
2019,02,03,16,37,1.40
2019,02,03,16,38,1.40
2019,02,03,16,39,1.40
2019,02,03,16,40,1.40
2019,02,03,16,41,1.40
2019,02,03,16,42,1.40
2019,02,03,16,43,1.40
2019,02,03,16,44,1.40
2019,02,03,16,45,1.40
2019,02,03,16,46,1.40
2019,02,03,16,47,1.40
2019,02,03,16,48,1.40
2019,02,03,16,49,1.40
2019,02,03,16,50,1.40
2019,02,03,16,51,1.40
2019,02,03,16,52,1.40
2019,02,03,16,53,1.40
2019,02,03,16,54,1.40
2019,02,03,16,55,1.40
2019,02,03,16,56,1.40
2019,02,03,16,57,1.30
2019,02,03,16,58,1.30
2019,02,03,16,59,1.30
2019,02,03,17,00,1.20
2019,02,03,17,01,1.20
2019,02,03,17,02,1.10
2019,02,03,17,03,1.10
2019,02,03,17,04,1.10
2019,02,03,17,05,1.00
2019,02,03,17,06,1.00
2019,02,03,17,07,1.00
2019,02,03,17,08,0.90
2019,02,03,17,09,0.90
2019,02,03,17,10,0.90
2019,02,03,17,11,0.80
2019,02,03,17,12,0.80
2019,02,03,17,13,0.70
2019,02,03,17,14,0.70
2019,02,03,17,15,0.60
2019,02,03,17,16,0.50
2019,02,03,17,17,0.50
2019,02,03,17,18,0.50
2019,02,03,17,19,0.40
2019,02,03,17,20,0.40
2019,02,03,17,21,0.40
2019,02,03,17,22,0.30
2019,02,03,17,23,0.20
2019,02,03,17,24,0.20
2019,02,03,17,25,0.20
2019,02,03,17,26,0.10
2019,02,03,17,27,0.10
2019,02,03,17,28,0.10
2019,02,03,17,29,0.00
2019,02,03,17,30,-0.10
2019,02,03,17,31,-0.10
2019,02,03,17,32,-0.20
2019,02,03,17,33,-0.20
2019,02,03,17,34,-0.20
2019,02,03,17,35,-0.30
2019,02,03,17,36,-0.30
2019,02,03,17,37,-0.30
2019,02,03,17,38,-0.40
2019,02,03,17,39,-0.40
2019,02,03,17,40,-0.40
2019,02,03,17,41,-0.40
2019,02,03,17,42,-0.50
2019,02,03,17,43,-0.60
2019,02,03,17,44,-0.60
2019,02,03,17,45,-0.60
2019,02,03,17,46,-0.60
2019,02,03,17,47,-0.60
2019,02,03,17,48,-0.60
2019,02,03,17,49,-0.60
2019,02,03,17,50,-0.60
2019,02,03,17,51,-0.60
2019,02,03,17,52,-0.70
2019,02,03,17,53,-0.70
2019,02,03,17,54,-0.70
2019,02,03,17,55,-0.70
2019,02,03,17,56,-0.70
2019,02,03,17,57,-0.70
2019,02,03,17,58,-0.80
2019,02,03,17,59,-0.80
2019,02,03,18,00,-0.80
2019,02,03,18,01,-0.80
2019,02,03,18,02,-0.90
2019,02,03,18,03,-0.90
2019,02,03,18,04,-0.90
2019,02,03,18,05,-0.90
2019,02,03,18,06,-0.90
2019,02,03,18,07,-0.90
2019,02,03,18,08,-0.90
2019,02,03,18,09,-0.90
2019,02,03,18,10,-0.90
2019,02,03,18,11,-0.90
2019,02,03,18,12,-0.90
2019,02,03,18,13,-0.90
2019,02,03,18,14,-0.90
2019,02,03,18,15,-0.90
2019,02,03,18,16,-0.90
2019,02,03,18,17,-1.00
2019,02,03,18,18,-1.10
2019,02,03,18,19,-1.10
2019,02,03,18,20,-1.10
2019,02,03,18,21,-1.10
2019,02,03,18,22,-1.10
2019,02,03,18,23,-1.10
2019,02,03,18,24,-1.10
2019,02,03,18,25,-1.10
2019,02,03,18,26,-1.10
2019,02,03,18,27,-1.10
2019,02,03,18,28,-1.10
2019,02,03,18,29,-1.10
2019,02,03,18,30,-1.10
2019,02,03,18,31,-1.10
2019,02,03,18,32,-1.10
2019,02,03,18,33,-1.10
2019,02,03,18,34,-1.10
2019,02,03,18,35,-1.10
2019,02,03,18,36,-1.10
2019,02,03,18,37,-1.10
2019,02,03,18,38,-1.10
2019,02,03,18,39,-1.20
2019,02,03,18,40,-1.20
2019,02,03,18,41,-1.20
2019,02,03,18,42,-1.20
2019,02,03,18,43,-1.20
2019,02,03,18,44,-1.30
2019,02,03,18,45,-1.30
2019,02,03,18,46,-1.30
2019,02,03,18,47,-1.30
2019,02,03,18,48,-1.30
2019,02,03,18,49,-1.30
2019,02,03,18,50,-1.30
2019,02,03,18,51,-1.30
2019,02,03,18,52,-1.30
2019,02,03,18,53,-1.40
2019,02,03,18,54,-1.40
2019,02,03,18,55,-1.40
2019,02,03,18,56,-1.40
2019,02,03,18,57,-1.40
2019,02,03,18,58,-1.30
2019,02,03,18,59,-1.30
2019,02,03,19,00,-1.30
2019,02,03,19,01,-1.40
2019,02,03,19,02,-1.40
2019,02,03,19,03,-1.40
2019,02,03,19,04,-1.40
2019,02,03,19,05,-1.40
2019,02,03,19,06,-1.40
2019,02,03,19,07,-1.40
2019,02,03,19,08,-1.40
2019,02,03,19,09,-1.40
2019,02,03,19,10,-1.40
2019,02,03,19,11,-1.40
2019,02,03,19,12,-1.50
2019,02,03,19,13,-1.50
2019,02,03,19,14,-1.50
2019,02,03,19,15,-1.60
2019,02,03,19,16,-1.60
2019,02,03,19,17,-1.60
2019,02,03,19,18,-1.70
2019,02,03,19,19,-1.70
2019,02,03,19,20,-1.80
2019,02,03,19,21,-1.80
2019,02,03,19,22,-1.80
2019,02,03,19,23,-1.80
2019,02,03,19,24,-1.80
2019,02,03,19,25,-1.80
2019,02,03,19,26,-1.80
2019,02,03,19,27,-1.80
2019,02,03,19,28,-1.90
2019,02,03,19,29,-1.90
2019,02,03,19,30,-1.90
2019,02,03,19,31,-2.00
2019,02,03,19,32,-2.00
2019,02,03,19,33,-2.00
2019,02,03,19,34,-2.10
2019,02,03,19,35,-2.20
2019,02,03,19,36,-2.30
2019,02,03,19,37,-2.30
2019,02,03,19,38,-2.40
2019,02,03,19,39,-2.50
2019,02,03,19,40,-2.50
2019,02,03,19,41,-2.50
2019,02,03,19,42,-2.50
2019,02,03,19,43,-2.50
2019,02,03,19,44,-2.60
2019,02,03,19,45,-2.60
2019,02,03,19,46,-2.60
2019,02,03,19,47,-2.60
2019,02,03,19,48,-2.60
2019,02,03,19,49,-2.70
2019,02,03,19,50,-2.70
2019,02,03,19,51,-2.70
2019,02,03,19,52,-2.70
2019,02,03,19,53,-2.70
2019,02,03,19,54,-2.80
2019,02,03,19,55,-2.80
2019,02,03,19,56,-2.80
2019,02,03,19,57,-2.80